[Date Prev][Date Next][Thread Prev][Thread Next] - [Date Index][Thread Index][Author Index]
2 Line ISS Keps 1-9
- Subject: [sarex] 2 Line ISS Keps 1-9
- From: "Dave Larsen PhD" <doc@xxxxxxxxxxx>
- Date: Wed, 9 Jan 2002 04:35:56 -0800
ISS
1 25544U 98067A 02009.15396664 .00071934 00000-0 78595-3 0 9341
2 25544 51.6403 132.1598 0002390 77.6121 347.1532 15.62669808179225
----
Via the sarex mailing list at AMSAT.ORG courtesy of AMSAT-NA.
To unsubscribe, send "unsubscribe sarex" to Majordomo@amsat.org
AMSAT Home